STARLINK-36423, 67448

Orbit data source: Space-Track

STARLINK-36423, 67448 is a payload satellite owned by SpaceX/Seattle (US) in LEO that was launched on Wed, 14 Jan 2026 UTC via an FALCON 9 launch vehicle from the Air Force Eastern Test Range (AFETR). Payload-class satellites include a variety of spacecraft equipped with specific instruments for various scientific and technological missions. These include communications satellites like Starlink; space stations such as the ISS; scientific satellites like the Hubble; Earth observation satellites from companies like Planet Labs, Umbra, and HawkEye 360; GPS; miniature CubeSats for education and research; and military/defense satellites.

Loading next visibility...
Identifier
67448, 2026-008D
Orbit
LEO
Country
Flag of USUS
Related business
Manufacturer
SpaceX/Seattle
Mission
Operational Commercial Communications
Bus & Motor
STARLINK V2MO, Unknown motor
Mass
575 kg wet, ~530 kg dry
Launch date (UTC)
2026-01-14 (5 months ago)
Launch vehicle
FALCON 9
Launch site
Air Force Eastern Test Range (AFETR)
Object type
Payload
Rocket body
Debris
Shape & HBR
Box + 2 Pan, 17.7 m
Radar Cross Section
36.964 m², Large (>1 m²)

Expand to show TLE details & history
Last TLE update: 12 hours ago

TLE from 12 hours ago
0 STARLINK-36423
1 67448U 26008D   26171.48173177  .00012467  00000-0  46158-3 0  9997
2 67448  43.0024 344.6547 0001944 251.7826 108.2815 15.27595271 25293
Epoch: 2026-06-20T11:33Z
TLE epoch observation values (Epoch: 2026-06-20T11:33:41.624Z)
Latitude
0.00002°
Longitude
-97.46444°
Altitude
483.198 km
Speed
7.625 km/s
True Right ascension
22h 58m 37s
True Declination
0° 00' 00"
Sunlit
Object was in daylight at epoch
Visualization orbit readout
Latitude
Unknown
Longitude
Unknown
Altitude
Unknown
Speed
Unknown
Apparent Right ascension
Unknown
Apparent Declination
Unknown
Sunlit
N/A
Visualization observer readout
Local Sidereal Time
10:18:00
Azimuth
Unknown
Elevation
Unknown
Doppler factor
Unknown
Orbital elements
Apogee altitude
486.282 km
Perigee altitude
483.614 km
Semi-major axis
6,863.085 km
Eccentricity
0.00019
Inclination
43.0024°
RAAN
344.6547°
Arg. of periapsis
251.7826°
True anomaly
108.30265°
Mean anomaly
108.2815°
Eccentric anomaly
108.29208°
Mean motion
3.81737 °/min
Orbital period
94.31 mins
BSTAR
0.00046158
Loading maneuver chart data...
Computing Atmospheric mass density...
Loading historical data...
Loading historical data...
Loading historical data...
Loading historical data...
Loading historical data...
Loading historical data...
Loading historical data...

Documentation

Showing up to 5 results
|